Weather History for Jordan, MT

Change the Weather History Date:

Tuesday, January 8, 2013

  Actual Average Record
Temperature  
Mean Temperature 26 °F 16 °F  
Max Temperature 40 °F 29 °F 64 °F (2002)
Min Temperature 12 °F 5 °F -38 °F (1937)
Degree Days  
Heating Degree Days 39 48  
Month to date heating degree days 372 391  
Since 1 July heating degree days 3471 3841  
Cooling Degree Days 0 0  
Month to date cooling degree days 0 0  
Year to date cooling degree days 0 0  
Moisture  
Dew Point 25 °F    
Average Humidity 83    
Maximum Humidity 96    
Minimum Humidity 69    
Precipitation  
Precipitation 0.02 in 0.01 in 0.35 in (1909)
Month to date precipitation 0.12 0.08  
Year to date precipitation 0.12 0.08  
Snow  
Snow 0.00 in - - ()
Month to date snowfall 0.0  
Since 1 July snowfall 0.0  
Snow Depth 0.00 in    
Sea Level Pressure  
Sea Level Pressure 29.88 in    
Wind  
Wind Speed 10 mph (WNW)    
Max Wind Speed 30 mph    
Max Gust Speed 37 mph    
T = Trace of Precipitation, MM = Missing Value Source: NWS Daily Summary

Daily Weather History Graph

Daily Weather History Graph

Search for Another Location

Airport:

Trip Planner

Search our weather history database for the weather conditions in past years. The results will help you decide how hot, cold, wet, or windy it might be!

Date:

Astronomy

Jan. 08, 2013 Rise Set
Actual Time 7:53 AM MST 4:36 PM MST
Civil Twilight 7:18 AM MST 5:11 PM MST
Nautical Twilight 6:40 AM MST 5:49 PM MST
Astronomical Twilight 6:03 AM MST 6:26 PM MST
Moon 4:28 AM MST (1/8) 1:41 PM MST (1/8)
Length of Visible Light 9h 52m
Length of Day
8h 42m
Waning Crescent, 13% of the Moon is Illuminated
Jan 8
Waning Crescent
Jan 11
New
Jan 18
First Quarter
Jan 26
Full
Feb 3
Last Quarter

Hourly Weather History & Observations

Time (MST) Temp. Windchill Dew Point Humidity Pressure Visibility Wind Dir Wind Speed Gust Speed Precip Events Conditions
12:48 AM 37.0 °F 31.6 °F 30.0 °F 76% 29.59 in - SW 6.9 mph - N/A   Unknown
1:48 AM 39.0 °F 32.8 °F 30.0 °F 70% 29.60 in - West 9.2 mph - N/A   Unknown
2:48 AM 37.0 °F 31.6 °F 30.0 °F 76% 29.63 in - West 6.9 mph - N/A   Unknown
3:48 AM 33.1 °F 26.9 °F 27.0 °F 78% 29.66 in - West 6.9 mph - N/A   Unknown
4:48 AM 33.1 °F 23.9 °F 26.1 °F 75% 29.69 in - NW 12.7 mph - N/A   Unknown
5:48 AM 28.9 °F 21.1 °F 24.1 °F 82% 29.73 in - NW 8.1 mph - N/A   Unknown
6:48 AM 30.0 °F 25.2 °F 25.0 °F 82% 29.75 in - West 4.6 mph - N/A   Unknown
7:48 AM 37.9 °F 26.3 °F 28.9 °F 70% 29.76 in - WNW 26.5 mph 36.8 mph N/A   Unknown
8:48 AM 34.0 °F 23.8 °F 32.0 °F 92% 29.79 in - NW 16.1 mph - 0.01 in   Unknown
9:48 AM 36.0 °F 27.1 °F 32.0 °F 86% 29.83 in - NW 13.8 mph - 0.01 in   Unknown
10:48 AM 35.1 °F 27.4 °F 33.1 °F 92% 29.86 in - WNW 10.4 mph - N/A   Unknown
11:48 AM 35.1 °F 25.5 °F 32.0 °F 89% 29.87 in - WNW 15.0 mph 24.2 mph N/A   Unknown
12:48 PM 35.1 °F 22.5 °F 32.0 °F 89% 29.89 in - WNW 26.5 mph 33.4 mph N/A   Unknown
1:48 PM 33.1 °F 21.9 °F 30.0 °F 89% 29.94 in - NW 18.4 mph - N/A   Unknown
2:48 PM 34.0 °F 23.8 °F 28.9 °F 82% 29.96 in - WNW 16.1 mph - N/A   Unknown
3:48 PM 34.0 °F 27.2 °F 28.0 °F 79% 30.00 in - West 8.1 mph - N/A   Unknown
4:48 PM 33.1 °F 24.9 °F 25.0 °F 72% 30.01 in - WNW 10.4 mph - N/A   Unknown
5:48 PM 28.0 °F 20.0 °F 19.9 °F 72% 30.04 in - NW 8.1 mph - N/A   Unknown
6:48 PM 24.1 °F - 18.0 °F 77% 30.06 in - Calm Calm - N/A   Unknown
7:48 PM 19.0 °F 13.9 °F 16.0 °F 88% 30.08 in - West 3.5 mph - N/A   Unknown
8:48 PM 16.0 °F - 12.0 °F 84% 30.09 in - Calm Calm - N/A   Unknown
9:48 PM 14.0 °F 8.2 °F 10.0 °F 84% 30.09 in - West 3.5 mph - N/A   Unknown
10:48 PM 16.0 °F 8.8 °F 12.9 °F 88% 30.08 in - WNW 4.6 mph - N/A   Unknown
11:48 PM 23.0 °F - 18.0 °F 81% 30.07 in - Calm Calm - N/A   Unknown